Mumbai, India

2:19 AM IST on March 30, 2017 (GMT +0530)
Chhatrapati Shivaji International

Weather History for VABB - September, 2012

Change the Weather History Date:

Sunday, September 9, 2012

  Actual Average Record
Temperature  
Mean Temperature 82 °F -  
Max Temperature 88 °F 86 °F 93 °F (2001)
Min Temperature 77 °F 77 °F 75 °F (2015)
Cooling Degree Days 18    
Growing Degree Days 32 (Base 50)    
Moisture  
Dew Point 78 °F    
Average Humidity 88    
Maximum Humidity 100    
Minimum Humidity 65    
Precipitation  
Precipitation 0.28 in - - ()
Sea Level Pressure  
Sea Level Pressure 29.70 in    
Wind  
Wind Speed 7 mph ()    
Max Wind Speed 14 mph    
Max Gust Speed 24 mph    
Visibility 2.0 miles    
Events Rain , Thunderstorm    
Averages and records for this station are not official NWS values.
T = Trace of Precipitation, MM = Missing Value Source: Averaged Metar Reports

Daily Weather History Graph

Daily Weather History Graph

Search for Another Location

Airport or City:

Trip Planner

Search our weather history database for the weather conditions in past years. The results will help you decide how hot, cold, wet, or windy it might be!

Date:

Astronomy

Sep. 09, 2012 Rise Set
Actual Time 6:25 AM IST 6:46 PM IST
Civil Twilight 6:03 AM IST 7:08 PM IST
Nautical Twilight 5:37 AM IST 7:33 PM IST
Astronomical Twilight 5:11 AM IST 7:59 PM IST
Moon No Moon Rise 1:34 PM IST (9/9)
Length of Visible Light 13h 05m
Length of Day
12h 21m
Last Quarter, 43% of the Moon is Illuminated
Sep 9
Last Quarter
Sep 16
New
Sep 23
First Quarter
Sep 30
Full
Oct 8
Last Quarter

Hourly Weather History & Observations

Time (IST) Temp. Heat Index Dew Point Humidity Pressure Visibility Wind Dir Wind Speed Gust Speed Precip Events Conditions
12:10 AM 80.6 °F 88.1 °F 78.8 °F 94% 29.71 in 1.9 mi SSW 5.8 mph 18.4 mph N/A   Light Drizzle
12:40 AM 80.6 °F 88.1 °F 78.8 °F 94% 29.71 in 1.9 mi SSW 4.6 mph - N/A   Drizzle
1:10 AM 78.8 °F - 78.8 °F 100% 29.71 in 1.9 mi Calm Calm - N/A   Light Drizzle
1:40 AM 78.8 °F - 78.8 °F 100% 29.68 in 1.9 mi Calm Calm - N/A   Partly Cloudy
2:30 AM 80 °F - 78 °F 93% 29.68 in 1 mi SW 4.6 mph - - Rain Light Rain
5:30 AM 81 °F - 78 °F 88% 29.67 in 1 mi SW 6.9 mph - -   Haze
5:40 AM 80.6 °F 88.1 °F 78.8 °F 94% 29.68 in 1.9 mi SW 9.2 mph 23.0 mph N/A Rain , Thunderstorm Thunderstorms and Rain
7:10 AM 80.6 °F 88.1 °F 78.8 °F 94% 29.68 in 1.9 mi SW 8.1 mph 19.6 mph N/A Rain Light Rain
7:40 AM 80.6 °F 88.1 °F 78.8 °F 94% 29.71 in 1.9 mi SSW 8.1 mph - N/A Rain Light Rain
8:10 AM 82.4 °F 92.4 °F 78.8 °F 89% 29.71 in 1.9 mi SSW 8.1 mph - N/A   Mostly Cloudy
8:30 AM 81 °F - 78 °F 87% 29.72 in 1 mi SW 6.9 mph - - Rain Light Rain
9:40 AM 82.4 °F 92.4 °F 78.8 °F 89% 29.74 in 1.9 mi SSW 10.4 mph - N/A   Haze
10:10 AM 82.4 °F 92.4 °F 78.8 °F 89% 29.74 in 1.9 mi SW 13.8 mph - N/A Rain Light Rain
10:40 AM 82.4 °F 90.9 °F 77.0 °F 84% 29.74 in 2.2 mi SSW 9.2 mph - N/A   Haze
11:10 AM 84.2 °F 96.1 °F 78.8 °F 84% 29.74 in 2.2 mi SW 9.2 mph 20.7 mph N/A   Haze
11:30 AM 85 °F - 77 °F 72% 29.73 in 1 mi SW 9.2 mph - -   Haze
11:40 AM 84.2 °F 96.1 °F 78.8 °F 84% 29.71 in 2.2 mi SW 9.2 mph 20.7 mph N/A   Haze
12:10 PM 84.2 °F 96.1 °F 78.8 °F 84% 29.71 in 2.2 mi SW 11.5 mph 23.0 mph N/A   Haze
12:40 PM 84.2 °F 94.1 °F 77.0 °F 79% 29.71 in 2.5 mi SSW 11.5 mph 23.0 mph N/A   Haze
1:10 PM 84.2 °F 94.1 °F 77.0 °F 79% 29.71 in 2.5 mi SW 12.7 mph - N/A   Haze
1:40 PM 86.0 °F 99.3 °F 78.8 °F 79% 29.68 in 2.5 mi SSW 12.7 mph 24.2 mph N/A   Haze
2:30 PM 87 °F - 77 °F 65% 29.68 in 2 mi SW 11.5 mph - -   Smoke
2:40 PM 84.2 °F 94.1 °F 77.0 °F 79% 29.65 in 3.7 mi SW 11.5 mph 23.0 mph N/A   Mostly Cloudy
3:10 PM 84.2 °F 94.1 °F 77.0 °F 79% 29.65 in 3.7 mi SW 13.8 mph - N/A   Mostly Cloudy
3:40 PM 84.2 °F 94.1 °F 77.0 °F 79% 29.65 in 3.7 mi SSW 13.8 mph - N/A   Mostly Cloudy
4:10 PM 84.2 °F 94.1 °F 77.0 °F 79% 29.65 in 3.7 mi SW 10.4 mph - N/A   Mostly Cloudy
5:30 PM 81 °F - 77 °F 84% 29.66 in 1 mi SW 6.9 mph - - Rain Light Rain
6:40 PM 78.8 °F - 78.8 °F 100% 29.68 in 1.9 mi West 6.9 mph - N/A   Haze
7:10 PM 80.6 °F 88.1 °F 78.8 °F 94% 29.68 in 1.9 mi West 6.9 mph - N/A Rain Light Rain
7:40 PM 80.6 °F 88.1 °F 78.8 °F 94% 29.68 in 1.9 mi West 3.5 mph - N/A   Haze
8:10 PM 80.6 °F 88.1 °F 78.8 °F 94% 29.71 in 2.5 mi WNW 5.8 mph - N/A   Haze
8:30 PM 80 °F - 77 °F 88% 29.71 in 1 mi SW 4.6 mph - - Rain Light Drizzle
9:10 PM 78.8 °F - 77.0 °F 94% 29.71 in 1.9 mi West 4.6 mph - N/A Rain Light Rain
9:40 PM 80.6 °F 87.1 °F 77.0 °F 89% 29.74 in 1.9 mi WSW 4.6 mph - N/A   Haze
10:10 PM 80.6 °F 87.1 °F 77.0 °F 89% 29.74 in 1.9 mi WSW 6.9 mph - N/A   Haze
10:40 PM 80.6 °F 87.1 °F 77.0 °F 89% 29.74 in 1.9 mi SW 3.5 mph - N/A   Haze
11:10 PM 80.6 °F 87.1 °F 77.0 °F 89% 29.74 in 1.9 mi SW 6.9 mph - N/A   Haze
11:30 PM 80 °F - 77 °F 86% 29.74 in 1 mi SW 6.9 mph - -   Haze
11:40 PM 78.8 °F - 77.0 °F 94% 29.74 in 1.9 mi WSW 9.2 mph - N/A   Haze